x

Sentry Shoal (46131) Wave Buoy

10:00 - Mon 4th May 2015 All times are PDT. -7 hours from GMT.

  • Sig Wave height 1.6ft
  • Peak Period 4s
  • Wind
    11mph, 13mph gusts
  • Sea Temp 52°f
  • Air Temp 52°f
  • Sea Pressure 1011.4mb
  • Sentry Shoal
  • Sentry Shoal

More Historic Weather Station data

Upgrade to MSW Pro to gain access to the past 30 days of data for over 8000 Wavebouys and Weather Stations around the globe.

Join Pro

Comparision Forecast

View Surf forecast
   
lun. 05/04 10:00 1.6ft 4s 11 13 mph 1011.4mb 52f 52f
9:00 2ft 4s 16 18 mph 1011mb 52f 53f
8:00 2.5ft 3s 16 18 mph 1010.6mb 52f 53f
7:00 2.5ft 4s 20 25 mph 1010.3mb 53f 53f
6:00 2ft 3s 18 25 mph 1010.5mb 53f 54f
5:00 2ft 3s 20 27 mph 1010.2mb 52f 54f
4:00 2.5ft 4s 18 25 mph 1010.4mb 52f 54f
3:00 3.5ft 5s 22 27 mph 1010.6mb 52f 53f
2:00 3.5ft 4s 22 29 mph 1010mb 52f 54f
1:00 3ft 4s 25 27 mph 1009.3mb 53f 54f
12:00 3ft 4s 22 25 mph 1009mb 53f 54f
11:00 2.5ft 4s 22 25 mph 1008.9mb 53f 53f
10:00 2.5ft 4s 16 20 mph 1008.9mb 53f 53f
9:00 2.5ft 4s 18 22 mph 1008.5mb 53f 53f
8:00 2ft 3s 18 22 mph 1008.6mb 53f 53f
7:00 1.3ft 3s 13 16 mph 1008.7mb 53f 53f
6:00 1ft 2s 13 16 mph 1008.6mb 52f 53f
5:00 0.7ft 2s 13 16 mph 1008.9mb 52f 54f
4:00 0.7ft 2s 11 13 mph 1009.3mb 52f 54f
3:00 0.3ft 2s 7
mph
1009.8mb 52f 53f
2:00 0.3ft 6s 9 11 mph 1010mb 52f 54f
1:00 0.3ft 6s 4 7 mph 1010.3mb 53f 54f
12:00 0.3ft 6s 2
mph
1010.8mb 53f 53f
dim. 05/03 11:00  -  6s 2
mph
1011mb 55f 54f
10:00 0.3ft 6s 2 4 mph 1011.3mb 56f 54f
9:00 0.3ft 6s  -  mph 1011.6mb 56f 55f
8:00 0.3ft 3s 2
mph
1011.6mb 57f 56f
7:00  -  2s 2 4 mph 1012mb 55f 57f
6:00  -  2s 2
mph
1012.7mb 56f 57f
5:00  -  2s 2 4 mph 1013.2mb 59f 57f
4:00 0.3ft 2s  -  2 mph 1014.2mb 59f 58f
3:00  -  2s  -  mph 1015.1mb 59f 56f
2:00  -  4s 2 4 mph 1015.9mb 57f 54f
1:00  -  2s 2
mph
1016.7mb 56f 53f
12:00 0.3ft 2s  -  2 mph 1017.2mb 55f 54f
11:00 0.3ft 2s 2
mph
1017.5mb 53f 51f
10:00 0.3ft 2s 7
mph
1017.5mb 53f 49f
9:00 0.7ft 2s 9
mph
1017.5mb 52f 48f
8:00 1ft 2s 11 13 mph 1017.4mb 52f 47f
7:00 1ft 3s 11 13 mph 1017.2mb 52f 47f
6:00 1.3ft 3s 13 16 mph 1016.9mb 52f 48f
5:00 1.3ft 2s 16 18 mph 1016.8mb 52f 48f
4:00 1.3ft 3s 13 16 mph 1016.7mb 52f 49f
3:00 1.3ft 3s 13 16 mph 1016.9mb 52f 50f
2:00 1.3ft 3s 16 18 mph 1017.4mb 53f 50f
1:00 1ft 2s 16 18 mph 1017.4mb 53f 51f
12:00 0.7ft 2s 13 18 mph 1017.4mb 53f 52f
sam. 05/02 11:00 0.7ft 2s 13 16 mph 1017.5mb 53f 53f
10:00 0.7ft 3s 11 13 mph 1017.6mb 53f 54f
9:00 0.7ft 2s 9 11 mph 1016.9mb 54f 55f
8:00  -  3s 13
mph
1016.6mb 54f 57f
7:00  -  2s 4
mph
1016.8mb 55f 57f
6:00 0.3ft 2s 4
mph
1017.2mb 56f 55f
5:00 0.3ft 2s 4
mph
1017.6mb 55f 56f
4:00 0.3ft 3s 4
mph
1018.1mb 54f 56f
3:00 0.3ft 2s 4 7 mph 1018.7mb 54f 56f
2:00 0.3ft 2s 4
mph
1019.2mb 53f 54f
1:00 0.7ft 2s 4 7 mph 1019.6mb 53f 53f
12:00 1ft 3s 9 11 mph 1020mb 52f 52f
11:00 1.3ft 3s 13
mph
1020.2mb 52f 50f
10:00 1.3ft 3s 16 18 mph 1020.2mb 52f 50f
9:00 1.6ft 3s 13 18 mph 1020.2mb 52f 49f
8:00 1.6ft 3s 16 20 mph 1020mb 52f 48f
7:00 1.6ft 3s 20 22 mph 1019.4mb 52f 47f
6:00 1.6ft 3s 20 22 mph 1019mb 52f 47f
5:00 1.6ft 3s 18 22 mph 1019mb 51f 47f
4:00 1.6ft 3s 18 22 mph 1018.9mb 51f 48f
3:00 1.6ft 3s 20 25 mph 1018.7mb 52f 48f
2:00 1.6ft 3s 18 22 mph 1019.1mb 52f 48f
1:00 1.6ft 3s 20 22 mph 1019.1mb 52f 49f
12:00 1.6ft 3s 20 22 mph 1019mb 52f 49f
ven. 05/01 11:00 1.6ft 3s 20 25 mph 1019.1mb 52f 50f
10:00 2ft 4s 20 22 mph 1018.7mb 52f 51f
9:00 2.5ft 4s 25 29 mph 1018mb 52f 52f
8:00 2.5ft 4s 22 27 mph 1017.7mb 52f 52f
7:00 1.6ft 4s 20 25 mph 1017.5mb 53f 53f
6:00 2ft 4s 16 20 mph 1017.7mb 53f 54f
5:00 1.6ft 3s 20 25 mph 1017.5mb 53f 54f
4:00 1ft 3s 13 18 mph 1017.9mb 53f 54f
3:00 0.7ft 2s 13 16 mph 1018.1mb 53f 53f
2:00 0.3ft 2s 11 13 mph 1018.3mb 53f 53f
1:00 0.3ft 2s 9 11 mph 1018.2mb 53f 54f
12:00 0.3ft 2s 9 11 mph 1018.5mb 53f 53f
11:00 0.3ft 2s 7
mph
1018.5mb 52f 51f
10:00 0.3ft 2s 7
mph
1018.5mb 52f 51f
9:00 0.3ft 2s 9 11 mph 1018.4mb 52f 50f
8:00 0.7ft 2s 4 7 mph 1018mb 51f 51f
7:00 0.7ft 3s 2
mph
1017.8mb 51f 51f